Time,TemperatureF,DewpointF,PressureIn,WindDirection,WindDirectionDegrees,WindSpeedMPH,WindSpeedGustMPH,Humidity,HourlyPrecipIn,Conditions,Clouds,dailyrainin,SoftwareType,DateUTC
2013-03-14 00:04:00,48.6,32.1,30.18,North,0,0.0,0.0,53,0.00,,,0.00,WUHU216HW,2013-03-14 04:04:00,
2013-03-14 00:09:00,48.6,32.1,30.17,North,0,0.0,0.0,53,0.00,,,0.00,WUHU216HW,2013-03-14 04:09:00,
2013-03-14 00:14:00,48.2,31.9,30.18,North,0,0.0,0.0,53,0.00,,,0.00,WUHU216HW,2013-03-14 04:14:00,
2013-03-14 00:19:00,48.2,31.9,30.18,West,270,0.0,0.0,53,0.00,,,0.00,WUHU216HW,2013-03-14 04:19:00,
2013-03-14 00:24:00,48.2,32.3,30.18,North,0,0.0,0.0,54,0.00,,,0.00,WUHU216HW,2013-03-14 04:24:00,
2013-03-14 00:29:00,47.9,32.0,30.18,NNE,23,0.4,0.4,54,0.00,,,0.00,WUHU216HW,2013-03-14 04:29:00,
2013-03-14 00:34:00,47.5,31.6,30.18,NNE,23,0.0,0.4,54,0.00,,,0.00,WUHU216HW,2013-03-14 04:34:00,
2013-03-14 00:39:00,47.5,31.6,30.18,NNW,338,0.0,0.4,54,0.00,,,0.00,WUHU216HW,2013-03-14 04:39:00,
2013-03-14 00:44:00,47.5,32.0,30.18,NNW,338,0.0,0.0,55,0.00,,,0.00,WUHU216HW,2013-03-14 04:44:00,
2013-03-14 00:49:00,47.2,31.3,30.18,NNW,338,0.0,0.0,54,0.00,,,0.00,WUHU216HW,2013-03-14 04:49:00,
2013-03-14 00:54:00,47.0,31.2,30.18,NNE,23,0.0,0.0,54,0.00,,,0.00,WUHU216HW,2013-03-14 04:54:00,
2013-03-14 00:59:00,46.6,30.8,30.19,NE,45,0.0,0.9,54,0.00,,,0.00,WUHU216HW,2013-03-14 04:59:00,
2013-03-14 01:04:00,46.4,31.1,30.19,NNW,338,0.0,0.9,55,0.00,,,0.00,WUHU216HW,2013-03-14 05:04:00,
2013-03-14 01:09:00,46.4,31.5,30.18,NNW,338,0.0,0.0,56,0.00,,,0.00,WUHU216HW,2013-03-14 05:09:00,
2013-03-14 01:14:00,46.4,32.0,30.18,East,90,0.0,0.2,57,0.00,,,0.00,WUHU216HW,2013-03-14 05:14:00,
2013-03-14 01:19:00,46.1,31.1,30.18,ENE,68,0.2,1.1,56,0.00,,,0.00,WUHU216HW,2013-03-14 05:19:00,
2013-03-14 01:24:00,46.4,31.1,30.19,SE,135,0.0,1.1,55,0.00,,,0.00,WUHU216HW,2013-03-14 05:24:00,
2013-03-14 01:29:00,46.4,30.6,30.19,South,180,0.0,0.4,54,0.00,,,0.00,WUHU216HW,2013-03-14 05:29:00,
2013-03-14 01:34:00,46.6,30.8,30.19,NNE,23,0.0,0.4,54,0.00,,,0.00,WUHU216HW,2013-03-14 05:34:00,
2013-03-14 01:39:00,46.6,30.3,30.19,SE,135,0.0,0.4,53,0.00,,,0.00,WUHU216HW,2013-03-14 05:39:00,
2013-03-14 01:44:00,46.8,30.1,30.20,NNW,338,0.0,1.6,52,0.00,,,0.00,WUHU216HW,2013-03-14 05:44:00,
2013-03-14 01:49:00,47.0,30.3,30.20,WNW,293,0.0,1.6,52,0.00,,,0.00,WUHU216HW,2013-03-14 05:49:00,
2013-03-14 01:54:00,46.8,30.1,30.20,SE,135,0.0,0.2,52,0.00,,,0.00,WUHU216HW,2013-03-14 05:54:00,
2013-03-14 01:59:00,46.8,30.1,30.20,SE,135,0.0,0.2,52,0.00,,,0.00,WUHU216HW,2013-03-14 05:59:00,
2013-03-14 02:04:00,46.8,30.5,30.20,SE,135,0.0,0.0,53,0.00,,,0.00,WUHU216HW,2013-03-14 06:04:00,
2013-03-14 02:09:00,46.6,30.3,30.20,SE,135,0.0,0.0,53,0.00,,,0.00,WUHU216HW,2013-03-14 06:09:00,
2013-03-14 02:14:00,46.4,30.2,30.21,SE,135,0.0,0.0,53,0.00,,,0.00,WUHU216HW,2013-03-14 06:14:00,
2013-03-14 02:19:00,46.4,30.6,30.21,SE,135,0.0,0.0,54,0.00,,,0.00,WUHU216HW,2013-03-14 06:19:00,
2013-03-14 02:24:00,46.1,30.2,30.21,NNE,23,0.2,0.4,54,0.00,,,0.00,WUHU216HW,2013-03-14 06:24:00,
2013-03-14 02:29:00,45.7,30.0,30.21,WNW,293,0.0,0.4,54,0.00,,,0.00,WUHU216HW,2013-03-14 06:29:00,
2013-03-14 02:34:00,45.7,30.0,30.21,WNW,293,0.0,0.4,54,0.00,,,0.00,WUHU216HW,2013-03-14 06:34:00,
2013-03-14 02:39:00,45.7,29.5,30.21,WNW,293,0.9,1.1,53,0.00,,,0.00,WUHU216HW,2013-03-14 06:39:00,
2013-03-14 02:44:00,45.7,29.5,30.21,West,270,0.0,1.1,53,0.00,,,0.00,WUHU216HW,2013-03-14 06:44:00,
2013-03-14 02:49:00,45.7,30.0,30.21,West,270,0.0,1.1,54,0.00,,,0.00,WUHU216HW,2013-03-14 06:49:00,
2013-03-14 02:54:00,45.7,30.0,30.21,SSE,158,0.0,0.2,54,0.00,,,0.00,WUHU216HW,2013-03-14 06:54:00,
2013-03-14 02:59:00,45.4,29.6,30.21,West,270,0.0,0.2,54,0.00,,,0.00,WUHU216HW,2013-03-14 06:59:00,
2013-03-14 03:04:00,45.2,29.9,30.20,West,270,0.0,0.2,55,0.00,,,0.00,WUHU216HW,2013-03-14 07:04:00,
2013-03-14 03:09:00,45.0,29.8,30.20,WNW,293,0.0,0.2,55,0.00,,,0.00,WUHU216HW,2013-03-14 07:09:00,
2013-03-14 03:14:00,44.8,30.1,30.20,SSE,158,0.0,0.2,56,0.00,,,0.00,WUHU216HW,2013-03-14 07:14:00,
2013-03-14 03:19:00,44.8,29.6,30.20,SSE,158,0.0,0.0,55,0.00,,,0.00,WUHU216HW,2013-03-14 07:19:00,
2013-03-14 03:24:00,44.6,29.4,30.20,SSE,158,0.0,0.7,55,0.00,,,0.00,WUHU216HW,2013-03-14 07:24:00,
2013-03-14 03:29:00,44.6,29.4,30.20,NW,315,0.0,0.7,55,0.00,,,0.00,WUHU216HW,2013-03-14 07:29:00,
2013-03-14 03:34:00,44.5,29.3,30.21,South,180,0.4,0.4,55,0.00,,,0.00,WUHU216HW,2013-03-14 07:34:00,
2013-03-14 03:39:00,44.3,29.1,30.21,SSE,158,0.0,0.4,55,0.00,,,0.00,WUHU216HW,2013-03-14 07:39:00,
2013-03-14 03:44:00,44.3,29.1,30.20,WNW,293,0.0,0.7,55,0.00,,,0.00,WUHU216HW,2013-03-14 07:44:00,
2013-03-14 03:49:00,44.3,29.5,30.21,NW,315,0.0,0.7,56,0.00,,,0.00,WUHU216HW,2013-03-14 07:49:00,
2013-03-14 03:54:00,44.1,29.3,30.21,West,270,0.0,0.4,56,0.00,,,0.00,WUHU216HW,2013-03-14 07:54:00,
2013-03-14 03:59:00,43.9,29.2,30.21,NNW,338,0.0,0.0,56,0.00,,,0.00,WUHU216HW,2013-03-14 07:59:00,
2013-03-14 04:04:00,43.6,28.8,30.21,NNW,338,0.0,0.0,56,0.00,,,0.00,WUHU216HW,2013-03-14 08:04:00,
2013-03-14 04:09:00,43.4,28.7,30.20,North,0,0.0,0.0,56,0.00,,,0.00,WUHU216HW,2013-03-14 08:09:00,
2013-03-14 04:14:00,43.2,28.5,30.21,North,0,0.0,0.0,56,0.00,,,0.00,WUHU216HW,2013-03-14 08:14:00,
2013-03-14 04:19:00,43.0,28.8,30.21,North,0,0.0,0.0,57,0.00,,,0.00,WUHU216HW,2013-03-14 08:19:00,
2013-03-14 04:24:00,42.8,29.0,30.21,WSW,248,0.0,0.9,58,0.00,,,0.00,WUHU216HW,2013-03-14 08:24:00,
2013-03-14 04:29:00,42.7,28.9,30.20,WSW,248,0.0,0.9,58,0.00,,,0.00,WUHU216HW,2013-03-14 08:29:00,
2013-03-14 04:34:00,42.5,28.7,30.21,East,90,0.0,0.0,58,0.00,,,0.00,WUHU216HW,2013-03-14 08:34:00,
2013-03-14 04:39:00,42.1,28.4,30.21,WNW,293,0.0,0.4,58,0.00,,,0.00,WUHU216HW,2013-03-14 08:39:00,
2013-03-14 04:44:00,42.1,28.4,30.21,WNW,293,0.0,0.4,58,0.00,,,0.00,WUHU216HW,2013-03-14 08:44:00,
2013-03-14 04:49:00,41.8,28.0,30.21,WNW,293,0.0,0.0,58,0.00,,,0.00,WUHU216HW,2013-03-14 08:49:00,
2013-03-14 04:54:00,41.6,28.3,30.21,WNW,293,0.0,0.0,59,0.00,,,0.00,WUHU216HW,2013-03-14 08:54:00,
2013-03-14 04:59:00,41.4,28.6,30.21,WNW,293,0.2,1.1,60,0.00,,,0.00,WUHU216HW,2013-03-14 08:59:00,
2013-03-14 05:04:00,41.2,28.5,30.22,NNE,23,0.0,1.1,60,0.00,,,0.00,WUHU216HW,2013-03-14 09:04:00,
2013-03-14 05:09:00,40.9,28.1,30.21,NNE,23,0.0,0.9,60,0.00,,,0.00,WUHU216HW,2013-03-14 09:09:00,
2013-03-14 05:14:00,40.7,28.3,30.21,NNE,23,0.0,0.0,61,0.00,,,0.00,WUHU216HW,2013-03-14 09:14:00,
2013-03-14 05:19:00,40.5,28.4,30.21,NNE,23,0.0,0.0,62,0.00,,,0.00,WUHU216HW,2013-03-14 09:19:00,
2013-03-14 05:24:00,40.3,28.3,30.21,NNE,23,0.0,0.0,62,0.00,,,0.00,WUHU216HW,2013-03-14 09:24:00,
2013-03-14 05:29:00,40.3,28.7,30.21,NNE,23,0.0,0.0,63,0.00,,,0.00,WUHU216HW,2013-03-14 09:29:00,
2013-03-14 05:34:00,40.1,28.5,30.22,WNW,293,0.0,0.0,63,0.00,,,0.00,WUHU216HW,2013-03-14 09:34:00,
2013-03-14 05:39:00,40.1,28.9,30.22,WNW,293,0.0,0.2,64,0.00,,,0.00,WUHU216HW,2013-03-14 09:39:00,
2013-03-14 05:44:00,40.1,28.5,30.22,WNW,293,0.0,0.2,63,0.00,,,0.00,WUHU216HW,2013-03-14 09:44:00,
2013-03-14 05:49:00,40.3,28.7,30.22,SW,225,0.4,0.4,63,0.00,,,0.00,WUHU216HW,2013-03-14 09:49:00,
2013-03-14 05:54:00,40.3,28.7,30.23,ENE,68,0.0,0.4,63,0.00,,,0.00,WUHU216HW,2013-03-14 09:54:00,
2013-03-14 05:59:00,40.1,28.5,30.23,West,270,0.0,0.4,63,0.00,,,0.00,WUHU216HW,2013-03-14 09:59:00,
2013-03-14 06:04:00,40.1,28.1,30.23,South,180,0.0,0.4,62,0.00,,,0.00,WUHU216HW,2013-03-14 10:04:00,
2013-03-14 06:09:00,40.1,28.1,30.24,WNW,293,0.0,0.2,62,0.00,,,0.00,WUHU216HW,2013-03-14 10:09:00,
2013-03-14 06:14:00,40.0,27.9,30.24,South,180,0.0,0.0,62,0.00,,,0.00,WUHU216HW,2013-03-14 10:14:00,
2013-03-14 06:19:00,39.8,27.7,30.24,WSW,248,0.0,0.0,62,0.00,,,0.00,WUHU216HW,2013-03-14 10:19:00,
2013-03-14 06:24:00,39.8,28.2,30.24,NNW,338,0.0,0.4,63,0.00,,,0.00,WUHU216HW,2013-03-14 10:24:00,
2013-03-14 06:29:00,39.6,28.0,30.25,NNW,338,0.0,0.4,63,0.00,,,0.00,WUHU216HW,2013-03-14 10:29:00,
2013-03-14 06:34:00,39.4,27.8,30.25,WNW,293,0.0,0.0,63,0.00,,,0.00,WUHU216HW,2013-03-14 10:34:00,
2013-03-14 06:39:00,39.2,27.6,30.25,North,0,0.0,0.0,63,0.00,,,0.00,WUHU216HW,2013-03-14 10:39:00,
2013-03-14 06:44:00,38.9,27.3,30.26,WSW,248,0.4,0.4,63,0.00,,,0.00,WUHU216HW,2013-03-14 10:44:00,
2013-03-14 06:50:00,38.7,27.1,30.26,NNW,338,0.0,0.9,63,0.00,,,0.00,WUHU216HW,2013-03-14 10:50:00,
2013-03-14 06:55:00,38.5,26.9,30.26,ENE,68,0.0,0.9,63,0.00,,,0.00,WUHU216HW,2013-03-14 10:55:00,
2013-03-14 07:00:00,38.3,26.8,30.26,WNW,293,0.0,0.0,63,0.00,,,0.00,WUHU216HW,2013-03-14 11:00:00,
2013-03-14 07:05:00,38.2,27.0,30.26,East,90,0.0,0.0,64,0.00,,,0.00,WUHU216HW,2013-03-14 11:05:00,
2013-03-14 07:10:00,38.0,26.8,30.26,East,90,0.0,0.0,64,0.00,,,0.00,WUHU216HW,2013-03-14 11:10:00,
2013-03-14 07:15:00,38.0,27.2,30.26,East,90,0.0,0.0,65,0.00,,,0.00,WUHU216HW,2013-03-14 11:15:00,
2013-03-14 07:20:00,38.0,27.2,30.26,East,90,0.0,0.0,65,0.00,,,0.00,WUHU216HW,2013-03-14 11:20:00,
2013-03-14 07:25:00,37.8,26.6,30.26,ESE,113,0.0,0.2,64,0.00,,,0.00,WUHU216HW,2013-03-14 11:25:00,
2013-03-14 07:30:00,37.8,27.1,30.27,ESE,113,0.0,0.2,65,0.00,,,0.00,WUHU216HW,2013-03-14 11:30:00,
2013-03-14 07:35:00,37.8,27.1,30.27,NNE,23,0.0,0.4,65,0.00,,,0.00,WUHU216HW,2013-03-14 11:35:00,
2013-03-14 07:40:00,37.8,27.1,30.27,WSW,248,0.0,0.4,65,0.00,,,0.00,WUHU216HW,2013-03-14 11:40:00,
2013-03-14 07:45:00,37.8,27.1,30.27,WSW,248,0.0,0.0,65,0.00,,,0.00,WUHU216HW,2013-03-14 11:45:00,
2013-03-14 07:50:00,37.8,27.5,30.27,WNW,293,0.0,0.0,66,0.00,,,0.00,WUHU216HW,2013-03-14 11:50:00,
2013-03-14 07:55:00,37.8,27.5,30.27,West,270,0.4,0.7,66,0.00,,,0.00,WUHU216HW,2013-03-14 11:55:00,
2013-03-14 08:00:00,37.8,27.5,30.28,West,270,0.0,0.7,66,0.00,,,0.00,WUHU216HW,2013-03-14 12:00:00,
2013-03-14 08:05:00,37.6,27.3,30.28,WNW,293,0.0,0.7,66,0.00,,,0.00,WUHU216HW,2013-03-14 12:05:00,
2013-03-14 08:10:00,37.6,27.3,30.28,WNW,293,0.0,0.0,66,0.00,,,0.00,WUHU216HW,2013-03-14 12:10:00,
2013-03-14 08:15:00,37.8,27.8,30.28,WNW,293,0.0,0.0,67,0.00,,,0.00,WUHU216HW,2013-03-14 12:15:00,
2013-03-14 08:20:00,38.0,28.0,30.29,WSW,248,0.4,0.4,67,0.00,,,0.00,WUHU216HW,2013-03-14 12:20:00,
2013-03-14 08:25:00,38.2,28.2,30.29,WNW,293,0.0,0.4,67,0.00,,,0.00,WUHU216HW,2013-03-14 12:25:00,
2013-03-14 08:30:00,38.5,28.1,30.29,North,0,0.4,0.4,66,0.00,,,0.00,WUHU216HW,2013-03-14 12:30:00,
2013-03-14 08:35:00,38.9,28.0,30.30,North,0,1.1,1.6,65,0.00,,,0.00,WUHU216HW,2013-03-14 12:35:00,
2013-03-14 08:40:00,39.2,28.0,30.30,North,0,1.6,1.6,64,0.00,,,0.00,WUHU216HW,2013-03-14 12:40:00,
2013-03-14 08:45:00,39.6,28.4,30.30,North,0,0.4,2.5,64,0.00,,,0.00,WUHU216HW,2013-03-14 12:45:00,
2013-03-14 08:50:00,40.0,28.4,30.30,North,0,1.6,2.5,63,0.00,,,0.00,WUHU216HW,2013-03-14 12:50:00,
2013-03-14 08:55:00,40.1,28.9,30.30,NNE,23,0.4,2.5,64,0.00,,,0.00,WUHU216HW,2013-03-14 12:55:00,
2013-03-14 09:00:00,40.5,28.9,30.31,NNE,23,4.3,4.3,63,0.00,,,0.00,WUHU216HW,2013-03-14 13:00:00,
2013-03-14 09:05:00,40.9,28.8,30.31,NE,45,1.8,4.3,62,0.00,,,0.00,WUHU216HW,2013-03-14 13:05:00,
2013-03-14 09:10:00,41.4,29.0,30.31,NE,45,2.0,4.3,61,0.00,,,0.00,WUHU216HW,2013-03-14 13:10:00,
2013-03-14 09:15:00,42.1,29.6,30.31,NNE,23,1.6,4.0,61,0.00,,,0.00,WUHU216HW,2013-03-14 13:15:00,
2013-03-14 09:20:00,43.0,30.1,30.31,NNE,23,2.5,3.8,60,0.00,,,0.00,WUHU216HW,2013-03-14 13:20:00,
2013-03-14 09:25:00,44.8,31.4,30.31,ENE,68,1.6,3.8,59,0.00,,,0.00,WUHU216HW,2013-03-14 13:25:00,
2013-03-14 09:30:00,46.1,31.6,30.31,North,0,1.3,3.1,57,0.00,,,0.00,WUHU216HW,2013-03-14 13:30:00,
2013-03-14 09:35:00,47.3,31.9,30.31,NNE,23,3.6,3.6,55,0.00,,,0.00,WUHU216HW,2013-03-14 13:35:00,
2013-03-14 09:40:00,48.2,30.9,30.32,North,0,4.0,6.3,51,0.00,,,0.00,WUHU216HW,2013-03-14 13:40:00,
2013-03-14 09:45:00,49.1,31.8,30.32,North,0,1.8,6.3,51,0.00,,,0.00,WUHU216HW,2013-03-14 13:45:00,
2013-03-14 09:50:00,50.8,32.9,30.32,NNE,23,1.8,4.0,50,0.00,,,0.00,WUHU216HW,2013-03-14 13:50:00,
2013-03-14 09:55:00,52.6,33.4,30.32,NNE,23,1.8,4.0,48,0.00,,,0.00,WUHU216HW,2013-03-14 13:55:00,
2013-03-14 10:00:00,52.7,32.4,30.32,NNE,23,2.2,4.0,46,0.00,,,0.00,WUHU216HW,2013-03-14 14:00:00,
2013-03-14 10:05:00,51.5,30.7,30.31,North,0,2.5,7.6,45,0.00,,,0.00,WUHU216HW,2013-03-14 14:05:00,
2013-03-14 10:10:00,51.1,31.0,30.32,NE,45,2.2,7.6,46,0.00,,,0.00,WUHU216HW,2013-03-14 14:10:00,
2013-03-14 10:15:00,51.5,30.7,30.31,NNE,23,3.4,3.4,45,0.00,,,0.00,WUHU216HW,2013-03-14 14:15:00,
2013-03-14 10:20:00,50.8,30.6,30.31,NE,45,3.6,4.5,46,0.00,,,0.00,WUHU216HW,2013-03-14 14:20:00,
2013-03-14 10:25:00,50.6,29.9,30.31,NE,45,3.4,6.3,45,0.00,,,0.00,WUHU216HW,2013-03-14 14:25:00,
2013-03-14 10:30:00,50.8,30.1,30.32,NE,45,2.2,6.3,45,0.00,,,0.00,WUHU216HW,2013-03-14 14:30:00,
2013-03-14 10:35:00,52.6,32.2,30.32,NE,45,1.1,4.5,46,0.00,,,0.00,WUHU216HW,2013-03-14 14:35:00,
2013-03-14 10:40:00,52.4,29.9,30.32,North,0,1.3,4.7,42,0.00,,,0.00,WUHU216HW,2013-03-14 14:40:00,
2013-03-14 10:45:00,51.1,28.7,30.32,ENE,68,2.7,5.1,42,0.00,,,0.00,WUHU216HW,2013-03-14 14:45:00,
2013-03-14 10:50:00,50.6,28.8,30.32,North,0,2.5,5.1,43,0.00,,,0.00,WUHU216HW,2013-03-14 14:50:00,
2013-03-14 10:55:00,51.8,30.5,30.32,NNE,23,2.9,3.8,44,0.00,,,0.00,WUHU216HW,2013-03-14 14:55:00,
2013-03-14 11:00:00,52.2,30.2,30.32,NNW,338,2.2,3.8,43,0.00,,,0.00,WUHU216HW,2013-03-14 15:00:00,
2013-03-14 11:05:00,52.6,30.6,30.32,NNW,338,0.4,3.8,43,0.00,,,0.00,WUHU216HW,2013-03-14 15:05:00,
2013-03-14 11:10:00,52.9,30.9,30.31,NW,315,2.7,4.7,43,0.00,,,0.00,WUHU216HW,2013-03-14 15:10:00,
2013-03-14 11:15:00,52.9,30.9,30.31,SW,225,1.6,4.7,43,0.00,,,0.00,WUHU216HW,2013-03-14 15:15:00,
2013-03-14 11:20:00,52.9,30.9,30.31,North,0,2.5,4.0,43,0.00,,,0.00,WUHU216HW,2013-03-14 15:20:00,
2013-03-14 11:25:00,53.3,30.7,30.31,NNE,23,2.0,4.0,42,0.00,,,0.00,WUHU216HW,2013-03-14 15:25:00,
2013-03-14 11:30:00,55.1,31.1,30.31,ENE,68,1.6,4.0,40,0.00,,,0.00,WUHU216HW,2013-03-14 15:30:00,
2013-03-14 11:35:00,58.0,34.4,30.31,NNW,338,0.4,3.6,41,0.00,,,0.00,WUHU216HW,2013-03-14 15:35:00,
2013-03-14 11:40:00,60.3,34.5,30.32,North,0,1.1,4.0,38,0.00,,,0.00,WUHU216HW,2013-03-14 15:40:00,
2013-03-14 11:45:00,62.1,34.7,30.32,North,0,3.4,4.0,36,0.00,,,0.00,WUHU216HW,2013-03-14 15:45:00,
2013-03-14 11:50:00,62.3,33.3,30.32,NW,315,1.1,3.4,34,0.00,,,0.00,WUHU216HW,2013-03-14 15:50:00,
2013-03-14 11:55:00,63.0,33.3,30.32,North,0,3.8,4.5,33,0.00,,,0.00,WUHU216HW,2013-03-14 15:55:00,
2013-03-14 12:00:00,63.9,34.1,30.32,North,0,1.1,4.5,33,0.00,,,0.00,WUHU216HW,2013-03-14 16:00:00,
2013-03-14 12:05:00,64.8,34.2,30.32,WSW,248,3.4,4.0,32,0.00,,,0.00,WUHU216HW,2013-03-14 16:05:00,
2013-03-14 12:10:00,64.6,33.3,30.32,SW,225,1.6,6.9,31,0.00,,,0.00,WUHU216HW,2013-03-14 16:10:00,
2013-03-14 12:15:00,64.3,33.7,30.32,WSW,248,2.5,6.9,32,0.00,,,0.00,WUHU216HW,2013-03-14 16:15:00,
2013-03-14 12:20:00,64.1,32.0,30.32,North,0,2.0,5.4,30,0.00,,,0.00,WUHU216HW,2013-03-14 16:20:00,
2013-03-14 12:25:00,63.7,33.2,30.32,NNE,23,0.7,4.5,32,0.00,,,0.00,WUHU216HW,2013-03-14 16:25:00,
2013-03-14 12:30:00,63.5,33.0,30.32,NE,45,4.0,4.3,32,0.00,,,0.00,WUHU216HW,2013-03-14 16:30:00,
2013-03-14 12:35:00,63.0,32.6,30.32,North,0,2.2,5.1,32,0.00,,,0.00,WUHU216HW,2013-03-14 16:35:00,
2013-03-14 12:40:00,63.0,32.6,30.32,South,180,1.1,5.1,32,0.00,,,0.00,WUHU216HW,2013-03-14 16:40:00,
2013-03-14 12:45:00,63.5,33.8,30.32,South,180,0.9,4.7,33,0.00,,,0.00,WUHU216HW,2013-03-14 16:45:00,
2013-03-14 12:50:00,64.1,33.5,30.32,NNE,23,1.1,4.7,32,0.00,,,0.00,WUHU216HW,2013-03-14 16:50:00,
2013-03-14 12:55:00,63.5,32.3,30.32,NW,315,2.7,8.1,31,0.00,,,0.00,WUHU216HW,2013-03-14 16:55:00,
2013-03-14 13:00:00,63.4,32.1,30.31,SSW,203,1.1,8.1,31,0.00,,,0.00,WUHU216HW,2013-03-14 17:00:00,
2013-03-14 13:05:00,63.5,33.0,30.31,WNW,293,1.1,4.7,32,0.00,,,0.00,WUHU216HW,2013-03-14 17:05:00,
2013-03-14 13:10:00,63.5,30.6,30.31,NE,45,2.5,5.1,29,0.00,,,0.00,WUHU216HW,2013-03-14 17:10:00,
2013-03-14 13:15:00,63.7,32.5,30.31,NNW,338,2.5,8.3,31,0.00,,,0.00,WUHU216HW,2013-03-14 17:15:00,
2013-03-14 13:20:00,63.7,32.5,30.30,North,0,4.0,8.3,31,0.00,,,0.00,WUHU216HW,2013-03-14 17:20:00,
2013-03-14 13:25:00,63.9,32.7,30.30,North,0,2.0,4.7,31,0.00,,,0.00,WUHU216HW,2013-03-14 17:25:00,
2013-03-14 13:30:00,64.1,32.8,30.30,WSW,248,4.3,6.3,31,0.00,,,0.00,WUHU216HW,2013-03-14 17:30:00,
2013-03-14 13:35:00,63.7,32.5,30.30,WSW,248,4.7,6.9,31,0.00,,,0.00,WUHU216HW,2013-03-14 17:35:00,
2013-03-14 13:40:00,63.4,32.1,30.29,West,270,4.0,8.5,31,0.00,,,0.00,WUHU216HW,2013-03-14 17:40:00,
2013-03-14 13:45:00,63.4,32.9,30.29,SSW,203,2.9,8.5,32,0.00,,,0.00,WUHU216HW,2013-03-14 17:45:00,
2013-03-14 13:50:00,63.4,31.4,30.29,NNE,23,1.1,7.2,30,0.00,,,0.00,WUHU216HW,2013-03-14 17:50:00,
2013-03-14 13:55:00,63.4,32.1,30.29,ENE,68,4.0,5.4,31,0.00,,,0.00,WUHU216HW,2013-03-14 17:55:00,
2013-03-14 14:00:00,63.5,31.6,30.28,WNW,293,3.4,5.6,30,0.00,,,0.00,WUHU216HW,2013-03-14 18:00:00,
2013-03-14 14:05:00,62.5,30.6,30.28,SSW,203,1.8,5.6,30,0.00,,,0.00,WUHU216HW,2013-03-14 18:05:00,
2013-03-14 14:10:00,62.5,30.6,30.27,NNE,23,1.1,3.4,30,0.00,,,0.00,WUHU216HW,2013-03-14 18:10:00,
2013-03-14 14:15:00,62.6,31.5,30.27,North,0,3.4,4.3,31,0.00,,,0.00,WUHU216HW,2013-03-14 18:15:00,
2013-03-14 14:20:00,61.9,30.2,30.27,NE,45,3.4,7.2,30,0.00,,,0.00,WUHU216HW,2013-03-14 18:20:00,
2013-03-14 14:25:00,61.9,30.9,30.26,WSW,248,1.6,7.2,31,0.00,,,0.00,WUHU216HW,2013-03-14 18:25:00,
2013-03-14 14:30:00,62.3,31.1,30.26,WNW,293,1.8,4.3,31,0.00,,,0.00,WUHU216HW,2013-03-14 18:30:00,
2013-03-14 14:35:00,62.6,31.5,30.26,NE,45,3.4,4.3,31,0.00,,,0.00,WUHU216HW,2013-03-14 18:35:00,
2013-03-14 14:40:00,63.0,32.6,30.26,North,0,1.1,3.4,32,0.00,,,0.00,WUHU216HW,2013-03-14 18:40:00,
2013-03-14 14:45:00,63.5,32.3,30.26,NE,45,1.8,2.9,31,0.00,,,0.00,WUHU216HW,2013-03-14 18:45:00,
2013-03-14 14:50:00,63.4,31.4,30.26,West,270,4.0,4.0,30,0.00,,,0.00,WUHU216HW,2013-03-14 18:50:00,
2013-03-14 14:55:00,63.0,31.9,30.26,NNE,23,2.0,4.0,31,0.00,,,0.00,WUHU216HW,2013-03-14 18:55:00,
2013-03-14 15:00:00,63.7,32.5,30.26,SSW,203,4.5,4.5,31,0.00,,,0.00,WUHU216HW,2013-03-14 19:00:00,
2013-03-14 15:05:00,63.9,32.0,30.26,NNE,23,2.5,4.5,30,0.00,,,0.00,WUHU216HW,2013-03-14 19:05:00,
2013-03-14 15:10:00,63.7,30.8,30.26,NNW,338,2.7,4.0,29,0.00,,,0.00,WUHU216HW,2013-03-14 19:10:00,
2013-03-14 15:15:00,63.7,33.2,30.25,ESE,113,2.5,5.4,32,0.00,,,0.00,WUHU216HW,2013-03-14 19:15:00,
2013-03-14 15:20:00,63.7,32.5,30.24,SW,225,3.6,5.4,31,0.00,,,0.00,WUHU216HW,2013-03-14 19:20:00,
2013-03-14 15:25:00,62.6,31.5,30.24,ENE,68,2.9,6.3,31,0.00,,,0.00,WUHU216HW,2013-03-14 19:25:00,
2013-03-14 15:30:00,63.0,31.2,30.24,NE,45,4.7,6.3,30,0.00,,,0.00,WUHU216HW,2013-03-14 19:30:00,
2013-03-14 15:35:00,63.2,32.7,30.24,ENE,68,3.6,4.7,32,0.00,,,0.00,WUHU216HW,2013-03-14 19:35:00,
2013-03-14 15:40:00,63.0,31.2,30.24,NNW,338,2.7,5.6,30,0.00,,,0.00,WUHU216HW,2013-03-14 19:40:00,
2013-03-14 15:45:00,63.0,31.9,30.24,North,0,2.5,5.6,31,0.00,,,0.00,WUHU216HW,2013-03-14 19:45:00,
2013-03-14 15:50:00,63.0,31.9,30.24,NNW,338,1.3,4.9,31,0.00,,,0.00,WUHU216HW,2013-03-14 19:50:00,
2013-03-14 15:55:00,63.0,31.9,30.22,NNW,338,1.8,3.8,31,0.00,,,0.00,WUHU216HW,2013-03-14 19:55:00,
2013-03-14 16:00:00,63.2,32.7,30.23,SSW,203,3.1,4.7,32,0.00,,,0.00,WUHU216HW,2013-03-14 20:00:00,
2013-03-14 16:05:00,62.6,31.5,30.23,NNW,338,2.0,6.3,31,0.00,,,0.00,WUHU216HW,2013-03-14 20:05:00,
2013-03-14 16:10:00,62.3,31.9,30.23,NNW,338,1.6,6.3,32,0.00,,,0.00,WUHU216HW,2013-03-14 20:10:00,
2013-03-14 16:15:00,61.9,30.9,30.23,SW,225,4.0,5.1,31,0.00,,,0.00,WUHU216HW,2013-03-14 20:15:00,
2013-03-14 16:20:00,61.4,30.3,30.23,West,270,6.9,6.9,31,0.00,,,0.00,WUHU216HW,2013-03-14 20:20:00,
2013-03-14 16:25:00,61.2,30.3,30.23,East,90,2.0,6.9,31,0.00,,,0.00,WUHU216HW,2013-03-14 20:25:00,
2013-03-14 16:30:00,61.0,30.8,30.23,West,270,5.1,8.3,32,0.00,,,0.00,WUHU216HW,2013-03-14 20:30:00,
2013-03-14 16:35:00,61.0,30.1,30.22,NE,45,1.8,8.3,31,0.00,,,0.00,WUHU216HW,2013-03-14 20:35:00,
2013-03-14 16:40:00,60.8,31.3,30.22,NNE,23,2.0,2.9,33,0.00,,,0.00,WUHU216HW,2013-03-14 20:40:00,
2013-03-14 16:45:00,61.0,30.1,30.22,North,0,2.2,4.0,31,0.00,,,0.00,WUHU216HW,2013-03-14 20:45:00,
2013-03-14 16:50:00,60.7,30.4,30.23,NNE,23,2.9,4.0,32,0.00,,,0.00,WUHU216HW,2013-03-14 20:50:00,
2013-03-14 16:55:00,60.5,30.3,30.22,NNE,23,0.9,2.9,32,0.00,,,0.00,WUHU216HW,2013-03-14 20:55:00,
2013-03-14 17:00:00,60.5,31.1,30.22,North,0,1.3,1.8,33,0.00,,,0.00,WUHU216HW,2013-03-14 21:00:00,
2013-03-14 17:05:00,60.7,31.1,30.22,North,0,1.1,2.5,33,0.00,,,0.00,WUHU216HW,2013-03-14 21:05:00,
2013-03-14 17:10:00,60.5,30.3,30.23,NW,315,1.6,4.3,32,0.00,,,0.00,WUHU216HW,2013-03-14 21:10:00,
2013-03-14 17:15:00,60.3,30.9,30.23,NE,45,1.8,4.3,33,0.00,,,0.00,WUHU216HW,2013-03-14 21:15:00,
2013-03-14 17:20:00,60.3,30.9,30.23,West,270,2.5,3.4,33,0.00,,,0.00,WUHU216HW,2013-03-14 21:20:00,
2013-03-14 17:26:00,60.3,30.9,30.23,West,270,2.7,6.9,33,0.00,,,0.00,WUHU216HW,2013-03-14 21:26:00,
2013-03-14 17:31:00,60.1,30.7,30.22,NE,45,2.5,6.9,33,0.00,,,0.00,WUHU216HW,2013-03-14 21:31:00,
2013-03-14 17:36:00,59.8,30.4,30.22,West,270,4.7,4.7,33,0.00,,,0.00,WUHU216HW,2013-03-14 21:36:00,
2013-03-14 17:41:00,59.4,30.2,30.22,NNE,23,1.3,4.7,33,0.00,,,0.00,WUHU216HW,2013-03-14 21:41:00,
2013-03-14 17:46:00,59.4,30.2,30.22,ENE,68,1.6,4.0,33,0.00,,,0.00,WUHU216HW,2013-03-14 21:46:00,
2013-03-14 17:51:00,59.2,30.0,30.22,West,270,3.8,4.0,33,0.00,,,0.00,WUHU216HW,2013-03-14 21:51:00,
2013-03-14 17:56:00,58.9,29.7,30.22,ENE,68,1.3,3.8,33,0.00,,,0.00,WUHU216HW,2013-03-14 21:56:00,
2013-03-14 18:01:00,58.5,29.3,30.22,North,0,1.3,2.7,33,0.00,,,0.00,WUHU216HW,2013-03-14 22:01:00,
2013-03-14 18:06:00,58.3,29.9,30.22,WNW,293,4.0,5.4,34,0.00,,,0.00,WUHU216HW,2013-03-14 22:06:00,
2013-03-14 18:11:00,58.0,28.9,30.22,WSW,248,2.5,5.4,33,0.00,,,0.00,WUHU216HW,2013-03-14 22:11:00,
2013-03-14 18:16:00,57.8,29.4,30.22,North,0,0.4,2.5,34,0.00,,,0.00,WUHU216HW,2013-03-14 22:16:00,
2013-03-14 18:21:00,57.6,29.3,30.21,West,270,3.1,3.1,34,0.00,,,0.00,WUHU216HW,2013-03-14 22:21:00,
2013-03-14 18:26:00,57.4,29.1,30.21,NW,315,2.2,3.1,34,0.00,,,0.00,WUHU216HW,2013-03-14 22:26:00,
2013-03-14 18:31:00,57.2,29.6,30.21,West,270,2.0,5.8,35,0.00,,,0.00,WUHU216HW,2013-03-14 22:31:00,
2013-03-14 18:36:00,57.1,29.4,30.22,NNW,338,0.2,5.8,35,0.00,,,0.00,WUHU216HW,2013-03-14 22:36:00,
2013-03-14 18:41:00,56.9,30.0,30.22,SW,225,1.1,4.3,36,0.00,,,0.00,WUHU216HW,2013-03-14 22:41:00,
2013-03-14 18:46:00,56.7,29.8,30.22,NNE,23,1.1,1.8,36,0.00,,,0.00,WUHU216HW,2013-03-14 22:46:00,
2013-03-14 18:51:00,56.5,29.7,30.22,North,0,0.9,2.2,36,0.00,,,0.00,WUHU216HW,2013-03-14 22:51:00,
2013-03-14 18:56:00,56.2,30.1,30.22,North,0,0.0,2.2,37,0.00,,,0.00,WUHU216HW,2013-03-14 22:56:00,
2013-03-14 19:01:00,56.0,29.9,30.23,NE,45,0.7,0.7,37,0.00,,,0.00,WUHU216HW,2013-03-14 23:01:00,
2013-03-14 19:06:00,55.6,30.2,30.23,NE,45,0.4,0.7,38,0.00,,,0.00,WUHU216HW,2013-03-14 23:06:00,
2013-03-14 19:12:00,55.3,30.6,30.23,NNE,23,0.0,0.4,39,0.00,,,0.00,WUHU216HW,2013-03-14 23:12:00,
2013-03-14 19:17:00,54.9,30.3,30.23,NNE,23,0.4,0.4,39,0.00,,,0.00,WUHU216HW,2013-03-14 23:17:00,
2013-03-14 19:22:00,54.7,30.2,30.23,ENE,68,0.0,0.4,39,0.00,,,0.00,WUHU216HW,2013-03-14 23:22:00,
2013-03-14 19:27:00,54.4,30.5,30.23,ENE,68,0.0,0.4,40,0.00,,,0.00,WUHU216HW,2013-03-14 23:27:00,
2013-03-14 19:32:00,54.0,30.3,30.23,ENE,68,0.0,0.0,40,0.00,,,0.00,WUHU216HW,2013-03-14 23:32:00,
2013-03-14 19:37:00,53.6,30.4,30.23,NE,45,0.0,0.0,41,0.00,,,0.00,WUHU216HW,2013-03-14 23:37:00,
2013-03-14 19:42:00,53.3,30.2,30.23,NNE,23,0.0,0.0,41,0.00,,,0.00,WUHU216HW,2013-03-14 23:42:00,
2013-03-14 19:47:00,52.9,30.3,30.24,NNE,23,0.0,0.0,42,0.00,,,0.00,WUHU216HW,2013-03-14 23:47:00,
2013-03-14 19:52:00,52.4,30.4,30.23,NNE,23,0.0,0.0,43,0.00,,,0.00,WUHU216HW,2013-03-14 23:52:00,
2013-03-14 19:57:00,52.0,29.5,30.24,NNE,23,0.0,0.0,42,0.00,,,0.00,WUHU216HW,2013-03-14 23:57:00,
2013-03-14 20:02:00,51.5,29.6,30.23,NNE,23,0.0,0.0,43,0.00,,,0.00,WUHU216HW,2013-03-15 00:02:00,
2013-03-14 20:07:00,51.1,29.9,30.24,NNE,23,0.0,0.0,44,0.00,,,0.00,WUHU216HW,2013-03-15 00:07:00,
2013-03-14 20:12:00,50.8,29.5,30.24,NNE,23,0.0,0.0,44,0.00,,,0.00,WUHU216HW,2013-03-15 00:12:00,
2013-03-14 20:17:00,50.4,29.8,30.23,NNE,23,0.0,0.0,45,0.00,,,0.00,WUHU216HW,2013-03-15 00:17:00,
2013-03-14 20:22:00,50.2,30.2,30.23,NNE,23,0.0,0.0,46,0.00,,,0.00,WUHU216HW,2013-03-15 00:22:00,
2013-03-14 20:27:00,50.0,30.5,30.24,NW,315,0.0,0.0,47,0.00,,,0.00,WUHU216HW,2013-03-15 00:27:00,
2013-03-14 20:32:00,49.5,30.6,30.24,NW,315,0.0,0.0,48,0.00,,,0.00,WUHU216HW,2013-03-15 00:32:00,
2013-03-14 20:37:00,49.3,31.0,30.24,NW,315,0.0,0.0,49,0.00,,,0.00,WUHU216HW,2013-03-15 00:37:00,
2013-03-14 20:42:00,48.8,30.4,30.24,NW,315,0.0,0.0,49,0.00,,,0.00,WUHU216HW,2013-03-15 00:42:00,
2013-03-14 20:47:00,48.4,30.6,30.24,NW,315,0.0,0.0,50,0.00,,,0.00,WUHU216HW,2013-03-15 00:47:00,
2013-03-14 20:52:00,48.1,30.2,30.24,NW,315,0.0,0.0,50,0.00,,,0.00,WUHU216HW,2013-03-15 00:52:00,
2013-03-14 20:57:00,47.9,30.6,30.24,NW,315,0.0,0.0,51,0.00,,,0.00,WUHU216HW,2013-03-15 00:57:00,
2013-03-14 21:02:00,47.7,30.9,30.24,NW,315,0.0,0.0,52,0.00,,,0.00,WUHU216HW,2013-03-15 01:02:00,
2013-03-14 21:07:00,47.3,30.5,30.24,NW,315,0.0,0.0,52,0.00,,,0.00,WUHU216HW,2013-03-15 01:07:00,
2013-03-14 21:12:00,47.2,30.8,30.24,NW,315,0.0,0.0,53,0.00,,,0.00,WUHU216HW,2013-03-15 01:12:00,
2013-03-14 21:17:00,46.8,31.0,30.23,NW,315,0.0,0.0,54,0.00,,,0.00,WUHU216HW,2013-03-15 01:17:00,
2013-03-14 21:22:00,46.6,30.8,30.23,NW,315,0.0,0.0,54,0.00,,,0.00,WUHU216HW,2013-03-15 01:22:00,
2013-03-14 21:27:00,46.4,31.1,30.23,NW,315,0.0,0.0,55,0.00,,,0.00,WUHU216HW,2013-03-15 01:27:00,
2013-03-14 21:32:00,46.1,31.1,30.23,NW,315,0.0,0.0,56,0.00,,,0.00,WUHU216HW,2013-03-15 01:32:00,
2013-03-14 21:37:00,45.9,31.5,30.23,NW,315,0.0,0.0,57,0.00,,,0.00,WUHU216HW,2013-03-15 01:37:00,
2013-03-14 21:43:00,45.7,31.3,30.24,NW,315,0.0,0.0,57,0.00,,,0.00,WUHU216HW,2013-03-15 01:43:00,
2013-03-14 21:48:00,45.2,30.8,30.24,NW,315,0.0,0.0,57,0.00,,,0.00,WUHU216HW,2013-03-15 01:48:00,
2013-03-14 21:53:00,44.6,31.2,30.24,NNW,338,0.0,0.0,59,0.00,,,0.00,WUHU216HW,2013-03-15 01:53:00,
2013-03-14 21:58:00,44.3,30.9,30.24,NNW,338,0.0,0.0,59,0.00,,,0.00,WUHU216HW,2013-03-15 01:58:00,
2013-03-14 22:03:00,44.3,31.3,30.25,NNW,338,0.0,0.0,60,0.00,,,0.00,WUHU216HW,2013-03-15 02:03:00,
2013-03-14 22:08:00,44.3,31.3,30.25,NNW,338,0.0,0.0,60,0.00,,,0.00,WUHU216HW,2013-03-15 02:08:00,
2013-03-14 22:13:00,43.9,31.3,30.25,WNW,293,0.0,0.0,61,0.00,,,0.00,WUHU216HW,2013-03-15 02:13:00,
2013-03-14 22:18:00,43.6,31.0,30.25,WNW,293,0.0,0.0,61,0.00,,,0.00,WUHU216HW,2013-03-15 02:18:00,
2013-03-14 22:23:00,43.4,31.6,30.25,WNW,293,0.0,0.0,63,0.00,,,0.00,WUHU216HW,2013-03-15 02:23:00,
2013-03-14 22:28:00,43.2,31.4,30.25,WNW,293,0.0,0.0,63,0.00,,,0.00,WUHU216HW,2013-03-15 02:28:00,
2013-03-14 22:33:00,43.0,31.2,30.25,WNW,293,0.0,0.0,63,0.00,,,0.00,WUHU216HW,2013-03-15 02:33:00,
2013-03-14 22:38:00,43.0,31.2,30.25,NW,315,0.0,0.0,63,0.00,,,0.00,WUHU216HW,2013-03-15 02:38:00,
2013-03-14 22:43:00,42.7,31.3,30.25,NNW,338,0.0,0.0,64,0.00,,,0.00,WUHU216HW,2013-03-15 02:43:00,
2013-03-14 22:48:00,42.7,31.3,30.25,NNW,338,0.0,0.0,64,0.00,,,0.00,WUHU216HW,2013-03-15 02:48:00,
2013-03-14 22:53:00,42.5,31.5,30.26,NNW,338,0.0,0.0,65,0.00,,,0.00,WUHU216HW,2013-03-15 02:53:00,
2013-03-14 22:58:00,42.5,31.5,30.26,NNW,338,0.0,0.0,65,0.00,,,0.00,WUHU216HW,2013-03-15 02:58:00,
2013-03-14 23:03:00,42.3,31.3,30.25,West,270,0.0,0.0,65,0.00,,,0.00,WUHU216HW,2013-03-15 03:03:00,
2013-03-14 23:08:00,42.1,31.6,30.25,WNW,293,0.0,0.0,66,0.00,,,0.00,WUHU216HW,2013-03-15 03:08:00,
2013-03-14 23:13:00,42.1,31.6,30.26,West,270,0.4,0.7,66,0.00,,,0.00,WUHU216HW,2013-03-15 03:13:00,
2013-03-14 23:18:00,41.9,31.8,30.26,West,270,0.0,0.7,67,0.00,,,0.00,WUHU216HW,2013-03-15 03:18:00,
2013-03-14 23:23:00,41.9,31.8,30.26,West,270,0.0,0.4,67,0.00,,,0.00,WUHU216HW,2013-03-15 03:23:00,
2013-03-14 23:28:00,41.8,31.6,30.26,West,270,0.0,0.0,67,0.00,,,0.00,WUHU216HW,2013-03-15 03:28:00,
2013-03-14 23:33:00,41.6,31.4,30.26,West,270,0.0,0.0,67,0.00,,,0.00,WUHU216HW,2013-03-15 03:33:00,
2013-03-14 23:38:00,41.4,31.2,30.26,West,270,0.0,0.0,67,0.00,,,0.00,WUHU216HW,2013-03-15 03:38:00,
2013-03-14 23:43:00,41.4,31.2,30.26,West,270,0.0,0.0,67,0.00,,,0.00,WUHU216HW,2013-03-15 03:43:00,
2013-03-14 23:48:00,41.2,31.1,30.26,West,270,0.0,0.0,67,0.00,,,0.00,WUHU216HW,2013-03-15 03:48:00,
2013-03-14 23:53:00,41.0,30.9,30.26,West,270,0.0,0.0,67,0.00,,,0.00,WUHU216HW,2013-03-15 03:53:00,
2013-03-14 23:58:00,40.9,31.2,30.26,West,270,0.0,0.0,68,0.00,,,0.00,WUHU216HW,2013-03-15 03:58:00,